TimePST,TemperatureF,Dew PointF,Humidity,Sea Level PressureIn,VisibilityMPH,Wind Direction,Wind SpeedMPH,Gust SpeedMPH,PrecipitationIn,Events,Conditions,WindDirDegrees,DateUTC
12:53 AM,46.9,24.1,41,30.04,10.0,NW,11.5,-,N/A,,Overcast,320,2013-01-12 08:53:00
1:53 AM,46.9,24.1,41,30.05,10.0,NW,13.8,-,N/A,,Overcast,320,2013-01-12 09:53:00
2:53 AM,46.9,21.9,37,30.06,10.0,Calm,Calm,-,N/A,,Overcast,0,2013-01-12 10:53:00
3:53 AM,45.0,24.1,44,30.07,10.0,East,3.5,-,N/A,,Mostly Cloudy,90,2013-01-12 11:53:00
4:53 AM,43.0,26.1,51,30.09,10.0,SSW,4.6,-,N/A,,Clear,210,2013-01-12 12:53:00
5:53 AM,42.1,25.0,51,30.11,10.0,SW,4.6,-,N/A,,Clear,230,2013-01-12 13:53:00
6:53 AM,37.9,23.0,55,30.14,10.0,NNW,9.2,-,N/A,,Clear,330,2013-01-12 14:53:00
7:53 AM,41.0,24.1,51,30.16,10.0,ESE,4.6,-,N/A,,Clear,110,2013-01-12 15:53:00
8:53 AM,46.0,21.9,39,30.16,10.0,Calm,Calm,-,N/A,,Clear,0,2013-01-12 16:53:00
9:53 AM,50.0,10.0,20,30.17,10.0,Calm,Calm,-,N/A,,Clear,0,2013-01-12 17:53:00
10:53 AM,51.1,9.0,18,30.16,10.0,Calm,Calm,-,N/A,,Clear,0,2013-01-12 18:53:00
11:53 AM,53.1,9.0,17,30.12,10.0,Variable,3.5,-,N/A,,Partly Cloudy,0,2013-01-12 19:53:00
12:53 PM,54.0,9.0,17,30.09,10.0,NNE,5.8,-,N/A,,Partly Cloudy,20,2013-01-12 20:53:00
1:53 PM,54.0,8.1,16,30.09,10.0,Calm,Calm,-,N/A,,Clear,0,2013-01-12 21:53:00
2:53 PM,54.0,7.0,15,30.08,10.0,Variable,3.5,-,N/A,,Clear,0,2013-01-12 22:53:00
3:53 PM,54.0,8.1,16,30.07,10.0,SSE,5.8,-,N/A,,Partly Cloudy,160,2013-01-12 23:53:00
5:53 PM,50.0,10.9,21,30.09,10.0,Calm,Calm,-,N/A,,Clear,0,2013-01-13 01:53:00
6:53 PM,46.0,16.0,30,30.10,10.0,NW,6.9,-,N/A,,Clear,320,2013-01-13 02:53:00
7:53 PM,44.1,16.0,32,30.11,10.0,Calm,Calm,-,N/A,,Clear,0,2013-01-13 03:53:00
8:53 PM,43.0,12.9,30,30.12,10.0,Calm,Calm,-,N/A,,Clear,0,2013-01-13 04:53:00
9:53 PM,39.0,14.0,36,30.14,10.0,NNW,4.6,-,N/A,,Clear,340,2013-01-13 05:53:00
10:53 PM,39.0,16.0,39,30.14,10.0,NW,5.8,-,N/A,,Clear,310,2013-01-13 06:53:00
11:53 PM,39.9,15.1,36,30.14,10.0,NW,4.6,-,N/A,,Clear,320,2013-01-13 07:53:00